Mumbai, India

11:24 AM IST on July 26, 2017 (GMT +0530)
Chhatrapati Shivaji International

Weather History for VABB - November, 2013

Change the Weather History Date:

Wednesday, November 6, 2013

  Actual Average Record
Temperature  
Mean Temperature 82 °F -  
Max Temperature 93 °F 90 °F 97 °F (2015)
Min Temperature 70 °F 71 °F 66 °F (2016)
Cooling Degree Days 16    
Growing Degree Days 32 (Base 50)    
Moisture  
Dew Point 67 °F    
Average Humidity 58    
Maximum Humidity 83    
Minimum Humidity 30    
Precipitation  
Precipitation 0.00 in - - ()
Sea Level Pressure  
Sea Level Pressure 29.91 in    
Wind  
Wind Speed 4 mph ()    
Max Wind Speed 10 mph    
Max Gust Speed -    
Visibility 1.5 miles    
Events      
Averages and records for this station are not official NWS values.
T = Trace of Precipitation, MM = Missing Value Source: Averaged Metar Reports

Daily Weather History Graph

Daily Weather History Graph

Search for Another Location

Airport or City:

Trip Planner

Search our weather history database for the weather conditions in past years. The results will help you decide how hot, cold, wet, or windy it might be!

Date:

Astronomy

Nov. 06, 2013 Rise Set
Actual Time 6:41 AM IST 6:02 PM IST
Civil Twilight 6:18 AM IST 6:25 PM IST
Nautical Twilight 5:52 AM IST 6:51 PM IST
Astronomical Twilight 5:26 AM IST 7:17 PM IST
Moon 9:18 AM IST (11/6) 8:48 PM IST (11/6)
Length of Visible Light 12h 07m
Length of Day
11h 21m
Waxing Crescent, 10% of the Moon is Illuminated
Nov 6
Waxing Crescent
Nov 10
First Quarter
Nov 17
Full
Nov 26
Last Quarter
Dec 3
New

Hourly Weather History & Observations

Time (IST) Temp. Heat Index Dew Point Humidity Pressure Visibility Wind Dir Wind Speed Gust Speed Precip Events Conditions
12:10 AM 82.4 °F 85.4 °F 68.0 °F 62% 29.95 in 1.2 mi Calm Calm - N/A   Smoke
12:40 AM 82.4 °F 85.4 °F 68.0 °F 62% 29.95 in 1.2 mi NNE 3.5 mph - N/A   Smoke
1:10 AM 82.4 °F 85.4 °F 68.0 °F 62% 29.92 in 1.2 mi NNE 3.5 mph - N/A   Smoke
1:40 AM 82.4 °F 85.4 °F 68.0 °F 62% 29.92 in 1.2 mi ENE 3.5 mph - N/A   Smoke
2:10 AM 82.4 °F 86.3 °F 69.8 °F 66% 29.92 in 1.2 mi ENE 3.5 mph - N/A   Smoke
2:30 AM 76 °F - 70 °F 77% 29.92 in 1 mi Calm Calm - -   Haze
2:40 AM 80.6 °F 83.2 °F 68.0 °F 65% 29.92 in 1.2 mi NE 3.5 mph - N/A   Smoke
3:10 AM 80.6 °F 83.2 °F 68.0 °F 65% 29.92 in 1.7 mi ENE 3.5 mph - N/A   Smoke
3:40 AM 80.6 °F 82.7 °F 66.2 °F 61% 29.89 in 1.7 mi East 3.5 mph - N/A   Smoke
4:10 AM 80.6 °F 83.2 °F 68.0 °F 65% 29.89 in 1.6 mi East 3.5 mph - N/A   Smoke
4:40 AM 80.6 °F 83.2 °F 68.0 °F 65% 29.89 in 1.4 mi East 3.5 mph - N/A   Smoke
5:10 AM 80.6 °F 83.2 °F 68.0 °F 65% 29.89 in 1.6 mi NE 3.5 mph - N/A   Smoke
5:30 AM 72 °F - 68 °F 83% 29.90 in 1 mi Calm Calm - -   Haze
5:40 AM 80.6 °F 83.9 °F 69.8 °F 70% 29.89 in 1.6 mi NE 4.6 mph - N/A   Smoke
6:10 AM 78.8 °F - 69.8 °F 74% 29.92 in 1.6 mi NE 3.5 mph - N/A   Haze
6:40 AM 78.8 °F - 69.8 °F 74% 29.92 in 1.4 mi East 4.6 mph - N/A   Haze
7:10 AM 78.8 °F - 69.8 °F 74% 29.92 in 1.1 mi Calm Calm - N/A   Haze
7:40 AM 78.8 °F - 69.8 °F 74% 29.95 in 1.2 mi NNE 4.6 mph - N/A   Haze
8:10 AM 80.6 °F 83.2 °F 68.0 °F 65% 29.95 in 1.6 mi NE 8.1 mph - N/A   Haze
8:30 AM 78 °F - 71 °F 74% 29.96 in 1 mi Calm Calm - -   Haze
9:40 AM 84.2 °F 85.0 °F 62.6 °F 48% 29.98 in 1.9 mi East 6.9 mph - N/A   Smoke
10:10 AM 86.0 °F 87.3 °F 64.4 °F 48% 29.98 in 1.9 mi ESE 6.9 mph - N/A   Smoke
10:40 AM 86.0 °F 87.3 °F 64.4 °F 48% 29.98 in 1.9 mi ESE 8.1 mph - N/A   Smoke
11:10 AM 87.8 °F 89.4 °F 64.4 °F 46% 29.95 in 1.9 mi SSE 6.9 mph - N/A   Smoke
11:30 AM 90 °F - 62 °F 30% 29.96 in 1 mi East 4.6 mph - -   Smoke
11:40 AM 89.6 °F 91.1 °F 64.4 °F 43% 29.95 in 1.9 mi East 8.1 mph - N/A   Smoke
12:10 PM 91.4 °F 93.2 °F 64.4 °F 41% 29.95 in 1.9 mi SE 6.9 mph - N/A   Smoke
12:40 PM 91.4 °F 93.2 °F 64.4 °F 41% 29.92 in 1.9 mi ESE 3.5 mph - N/A   Smoke
1:10 PM 91.4 °F 92.1 °F 62.6 °F 38% 29.92 in 2.2 mi East 3.5 mph - N/A   Smoke
1:40 PM 91.4 °F 92.1 °F 62.6 °F 38% 29.89 in 2.2 mi East 4.6 mph - N/A   Smoke
2:10 PM 91.4 °F 92.1 °F 62.6 °F 38% 29.89 in - WNW 5.8 mph - N/A   Smoke
2:30 PM 91 °F - 67 °F 35% 29.84 in 1 mi NW 5.8 mph - -   Smoke
3:40 PM 89.6 °F 92.2 °F 66.2 °F 46% 29.86 in - WSW 10.4 mph - N/A   Smoke
4:10 PM 87.8 °F 90.4 °F 66.2 °F 49% 29.86 in - West 9.2 mph - N/A   Smoke
4:40 PM 87.8 °F 90.4 °F 66.2 °F 49% 29.86 in - West 8.1 mph - N/A   Smoke
5:10 PM 87.8 °F 89.4 °F 64.4 °F 46% 29.86 in 1.6 mi West 9.2 mph - N/A   Smoke
5:30 PM 87 °F - 66 °F 40% 29.87 in 1 mi NW 3.5 mph - -   Smoke
5:40 PM 86.0 °F 88.2 °F 66.2 °F 51% 29.86 in 1.7 mi West 8.1 mph - N/A   Smoke
6:40 PM 84.2 °F 87.3 °F 68.0 °F 58% 29.89 in 1.9 mi West 9.2 mph - N/A   Smoke
7:10 PM 84.2 °F 88.4 °F 69.8 °F 62% 29.89 in 1.7 mi WNW 4.6 mph - N/A   Smoke
7:40 PM 84.2 °F 88.4 °F 69.8 °F 62% 29.89 in 1.7 mi WNW 5.8 mph - N/A   Haze
8:10 PM 84.2 °F 88.4 °F 69.8 °F 62% 29.89 in 1.6 mi WNW 5.8 mph - N/A   Haze
8:30 PM 81 °F - 71 °F 66% 29.94 in 1 mi Calm Calm - -   Smoke
8:40 PM 84.2 °F 88.4 °F 69.8 °F 62% 29.92 in 1.6 mi NW 4.6 mph - N/A   Haze
9:10 PM 84.2 °F 88.4 °F 69.8 °F 62% 29.92 in 1.6 mi North 5.8 mph - N/A   Haze
9:40 PM 84.2 °F 88.4 °F 69.8 °F 62% 29.92 in 1.4 mi NE 4.6 mph - N/A   Haze
10:10 PM 82.4 °F 86.3 °F 69.8 °F 66% 29.92 in 1.4 mi NE 4.6 mph - N/A   Haze
10:40 PM 84.2 °F 86.6 °F 66.2 °F 55% 29.92 in 1.4 mi NE 4.6 mph - N/A   Haze
11:10 PM 82.4 °F 85.4 °F 68.0 °F 62% 29.92 in 1.4 mi NNE 3.5 mph - N/A   Haze
11:30 PM 76 °F - 69 °F 73% 29.91 in 1 mi Calm Calm - -   Haze
11:40 PM 80.6 °F 83.2 °F 68.0 °F 65% 29.92 in 1.4 mi Calm Calm - N/A   Haze